Tracking 18785 objects as of 23-July-2017
HD Live streaming from Space Station
objects crossing your sky now
MAYAK may become the brightest orbital object in the night sky!
Where is MAYAK now?
How to spot MAYAK

CICERO 6

Track CICERO 6 now!
10-day predictions


NORAD ID: 42793
Int'l Code: 2017-036AE
Perigee: 501.7 km
Apogee: 517.9 km
Inclination: 97.4 °
Period: 94.7 minutes
Semi major axis: 6880 km
RCS: Unknown
Launch date: June 23, 2017
Source: United States (US)
Launch site: SIRHARIKOTA (SRI)
Your satellite tracking list
Your tracking list is empty





NASA's NSSDC Master Catalog

Two Line Element Set (TLE):
1 42793U 17036AE  17203.94124212 +.00001045 +00000-0 +50150-4 0  9995
2 42793 097.4474 263.3749 0011731 144.8118 215.3895 15.21047605004532
Source of the keplerian elements: AFSPC